• In Russia
  • List of Countries
  • For 7 days
  • Water Temperature
  • Satellite Maps
  • Weather Map
  • Weather Widgets
  • user-avatar
    Login

    Hourly Weather Newport

    Today, 13 November, Tuesday

    Time Temperature Precipitation Wind Pressure Humidity
    00:00 +7°C° 0.4 mm 8 mps 756 mmHg 87%
    01:00 +7°C° 0.2 mm 8 mps 757 mmHg 87%
    02:00 +7°C° 0.2 mm 8 mps 757 mmHg 87%
    03:00 +7°C° 0.2 mm 8 mps 758 mmHg 87%
    04:00 +8°C° 0 mm 7 mps 759 mmHg 88%
    05:00 +8°C° 0 mm 7 mps 759 mmHg 88%
    06:00 +8°C° 0 mm 7 mps 760 mmHg 89%
    07:00 +8°C° 0 mm 6 mps 761 mmHg 89%
    08:00 +8°C° 0 mm 6 mps 762 mmHg 89%
    09:00 +9°C° 0 mm 6 mps 762 mmHg 89%
    10:00 +10°C° 0 mm 6 mps 763 mmHg 85%
    11:00 +11°C° 0 mm 7 mps 763 mmHg 82%
    12:00 +12°C° 0 mm 7 mps 764 mmHg 78%
    13:00 +11°C° 0.1 mm 7 mps 764 mmHg 79%
    14:00 +11°C° 0.1 mm 7 mps 764 mmHg 81%
    15:00 +11°C° 0.1 mm 7 mps 764 mmHg 82%
    16:00 +10°C° 0 mm 7 mps 763 mmHg 84%
    17:00 +10°C° 0 mm 7 mps 763 mmHg 86%
    18:00 +9°C° 0 mm 7 mps 763 mmHg 88%
    19:00 +10°C° 0 mm 8 mps 763 mmHg 87%
    20:00 +10°C° 0 mm 8 mps 763 mmHg 86%
    21:00 +10°C° 0 mm 9 mps 763 mmHg 85%
    22:00 +10°C° 0.3 mm 9 mps 763 mmHg 86%
    23:00 +9°C° 0.3 mm 10 mps 763 mmHg 87%

    Tomorrow, 14 November, Wednesday

    Time Temperature Precipitation Wind Pressure Humidity
    00:00 +9°C° 0.3 mm 10 mps 763 mmHg 87%
    01:00 +9°C° 0.3 mm 10 mps 762 mmHg 87%
    02:00 +9°C° 0.3 mm 10 mps 762 mmHg 88%
    03:00 +9°C° 0.3 mm 10 mps 762 mmHg 88%
    04:00 +11°C° 0.1 mm 10 mps 762 mmHg 88%
    05:00 +11°C° 0.1 mm 10 mps 762 mmHg 88%
    06:00 +11°C° 0.1 mm 9 mps 762 mmHg 88%
    07:00 +11°C° 0 mm 9 mps 762 mmHg 88%
    08:00 +11°C° 0 mm 9 mps 762 mmHg 88%
    09:00 +11°C° 0 mm 9 mps 762 mmHg 88%
    10:00 +11°C° 0 mm 9 mps 762 mmHg 87%
    11:00 +12°C° 0 mm 9 mps 762 mmHg 85%
    12:00 +12°C° 0 mm 9 mps 762 mmHg 84%
    13:00 +12°C° 0 mm 8 mps 762 mmHg 84%
    14:00 +12°C° 0 mm 7 mps 762 mmHg 84%
    15:00 +12°C° 0 mm 7 mps 762 mmHg 85%
    16:00 +11°C° 0 mm 7 mps 762 mmHg 87%
    17:00 +10°C° 0 mm 6 mps 762 mmHg 88%
    18:00 +10°C° 0 mm 6 mps 762 mmHg 90%
    19:00 +10°C° 0 mm 6 mps 762 mmHg 91%
    20:00 +9°C° 0 mm 6 mps 762 mmHg 93%
    21:00 +9°C° 0 mm 6 mps 762 mmHg 94%
    22:00 +9°C° 0 mm 6 mps 762 mmHg 94%
    23:00 +10°C° 0 mm 6 mps 762 mmHg 94%

    Day after tomorrow, 15 November, Thursday

    Time Temperature Precipitation Wind Pressure Humidity
    00:00 +10°C° 0 mm 5 mps 761 mmHg 95%
    01:00 +10°C° 0 mm 5 mps 761 mmHg 95%
    02:00 +10°C° 0 mm 6 mps 761 mmHg 95%
    03:00 +11°C° 0 mm 6 mps 761 mmHg 96%
    04:00 +12°C° 0 mm 5 mps 761 mmHg 96%
    05:00 +12°C° 0 mm 5 mps 761 mmHg 96%
    06:00 +12°C° 0 mm 5 mps 761 mmHg 96%
    07:00 +12°C° 0 mm 5 mps 761 mmHg 95%
    08:00 +13°C° 0 mm 6 mps 761 mmHg 95%
    09:00 +13°C° 0 mm 6 mps 761 mmHg 95%
    10:00 +13°C° 0 mm 6 mps 761 mmHg 93%
    11:00 +14°C° 0 mm 6 mps 761 mmHg 92%
    12:00 +14°C° 0 mm 6 mps 761 mmHg 90%
    13:00 +14°C° 0 mm 6 mps 761 mmHg 90%
    14:00 +14°C° 0 mm 6 mps 760 mmHg 90%
    15:00 +14°C° 0 mm 6 mps 760 mmHg 90%
    16:00 +14°C° 0 mm 6 mps 760 mmHg 91%
    17:00 +14°C° 0 mm 5 mps 761 mmHg 92%
    18:00 +13°C° 0 mm 5 mps 761 mmHg 93%
    19:00 +13°C° 0 mm 5 mps 761 mmHg 93%
    20:00 +13°C° 0 mm 4 mps 761 mmHg 94%
    21:00 +13°C° 0 mm 4 mps 762 mmHg 95%
    22:00 +12°C° 0 mm 4 mps 762 mmHg 96%
    23:00 +12°C° 0 mm 3 mps 762 mmHg 96%

    16 November, Friday

    Time Temperature Precipitation Wind Pressure Humidity
    00:00 +12°C° 0 mm 3 mps 762 mmHg 97%
    01:00 +12°C° 0 mm 3 mps 763 mmHg 97%
    02:00 +12°C° 0 mm 3 mps 763 mmHg 97%
    03:00 +11°C° 0 mm 3 mps 763 mmHg 97%
    04:00 +11°C° 0 mm 3 mps 763 mmHg 97%
    05:00 +12°C° 0 mm 4 mps 763 mmHg 97%
    06:00 +12°C° 0 mm 4 mps 763 mmHg 97%
    07:00 +12°C° 0 mm 4 mps 763 mmHg 96%
    08:00 +12°C° 0 mm 4 mps 764 mmHg 96%
    09:00 +13°C° 0 mm 5 mps 764 mmHg 95%
    10:00 +13°C° 0 mm 5 mps 764 mmHg 93%
    11:00 +14°C° 0 mm 5 mps 764 mmHg 91%
    12:00 +14°C° 0 mm 5 mps 764 mmHg 89%
    13:00 +14°C° 0 mm 5 mps 764 mmHg 89%
    14:00 +14°C° 0 mm 5 mps 764 mmHg 89%
    15:00 +15°C° 0 mm 6 mps 764 mmHg 89%
    16:00 +14°C° 0 mm 6 mps 764 mmHg 91%
    17:00 +13°C° 0 mm 6 mps 764 mmHg 93%
    18:00 +13°C° 0 mm 6 mps 764 mmHg 95%
    19:00 +13°C° 0 mm 6 mps 764 mmHg 95%
    20:00 +13°C° 0 mm 6 mps 764 mmHg 95%
    21:00 +11°C° 0 mm 6 mps 764 mmHg 95%
    22:00 +11°C° 0 mm 6 mps 764 mmHg 95%
    23:00 +11°C° 0 mm 6 mps 764 mmHg 95%

    17 November, Saturday

    Time Temperature Precipitation Wind Pressure Humidity
    00:00 +11°C° 0 mm 6 mps 764 mmHg 94%
    01:00 +11°C° 0 mm 6 mps 764 mmHg 95%
    02:00 +11°C° 0 mm 6 mps 764 mmHg 95%
    03:00 +11°C° 0 mm 6 mps 764 mmHg 95%
    04:00 +11°C° 0 mm 6 mps 764 mmHg 95%
    05:00 +11°C° 0 mm 6 mps 764 mmHg 95%
    06:00 +10°C° 0 mm 6 mps 764 mmHg 95%
    07:00 +10°C° 0 mm 6 mps 764 mmHg 93%
    08:00 +10°C° 0 mm 7 mps 764 mmHg 91%
    09:00 +10°C° 0 mm 7 mps 765 mmHg 90%
    10:00 +11°C° 0 mm 7 mps 765 mmHg 85%
    11:00 +11°C° 0 mm 7 mps 765 mmHg 81%
    12:00 +12°C° 0 mm 7 mps 765 mmHg 77%
    13:00 +12°C° 0 mm 7 mps 764 mmHg 77%
    14:00 +13°C° 0 mm 6 mps 764 mmHg 77%
    15:00 +11°C° 0 mm 6 mps 764 mmHg 78%
    16:00 +10°C° 0 mm 6 mps 764 mmHg 79%
    17:00 +9°C° 0 mm 7 mps 764 mmHg 81%
    18:00 +8°C° 0 mm 7 mps 764 mmHg 82%
    19:00 +8°C° 0 mm 7 mps 765 mmHg 81%
    20:00 +8°C° 0 mm 7 mps 765 mmHg 80%
    21:00 +6°C° 0 mm 7 mps 765 mmHg 79%
    22:00 +6°C° 0 mm 7 mps 765 mmHg 80%
    23:00 +5°C° 0 mm 7 mps 765 mmHg 81%

    18 November, Sunday

    Time Temperature Precipitation Wind Pressure Humidity
    00:00 +5°C° 0 mm 7 mps 765 mmHg 82%
    01:00 +5°C° 0 mm 7 mps 765 mmHg 82%
    02:00 +5°C° 0 mm 7 mps 765 mmHg 83%
    03:00 +4°C° 0 mm 7 mps 765 mmHg 83%
    04:00 +4°C° 0 mm 7 mps 765 mmHg 83%
    05:00 +4°C° 0 mm 7 mps 765 mmHg 82%
    06:00 +4°C° 0 mm 7 mps 765 mmHg 82%
    07:00 +4°C° 0 mm 7 mps 765 mmHg 81%
    08:00 +4°C° 0 mm 8 mps 765 mmHg 80%
    09:00 +4°C° 0 mm 8 mps 765 mmHg 79%
    10:00 +5°C° 0 mm 8 mps 765 mmHg 76%
    11:00 +7°C° 0 mm 8 mps 765 mmHg 73%
    12:00 +9°C° 0 mm 8 mps 765 mmHg 71%
    13:00 +9°C° 0 mm 8 mps 765 mmHg 71%
    14:00 +9°C° 0 mm 8 mps 765 mmHg 71%
    15:00 +9°C° 0 mm 8 mps 765 mmHg 71%
    16:00 +7°C° 0 mm 8 mps 765 mmHg 71%
    17:00 +6°C° 0 mm 9 mps 765 mmHg 72%
    18:00 +5°C° 0 mm 9 mps 765 mmHg 72%
    19:00 +5°C° 0 mm 9 mps 765 mmHg 73%
    20:00 +5°C° 0 mm 9 mps 765 mmHg 73%
    21:00 +3°C° 0 mm 9 mps 765 mmHg 74%
    22:00 +3°C° 0 mm 9 mps 765 mmHg 75%
    23:00 +4°C° 0 mm 8 mps 765 mmHg 75%
    Show more